2022-098L (53454 NORAD) Tracking and Keplerian Element Data

This shows tracking and keplerian element data for the satellite.

Feedback or suggestion? Click here.




ElementValue
Catalog53454
Name2022-098L
Epoch Orbit1551
Epoch Day325.07641525
Epoch Year2022
RAAN59.7105
Inclination97.525
Eccentricity0.0010564
Argument of Perigee289.8924
Mean Anonmoly194.7698
Mean Motion15.11589305
Decay Rate7.888E-05
L11 53454U 22098L 22325.07641525 .00007888 00000+0 46772-3 0 9995
L22 53454 97.5250 59.7105 0010564 289.8924 194.7698 15.11589305 15510



Live tracking and technical data element details for 2022-098L (NORAD 53454). 2022-098L can be tracked NOW for your location showing map with azimuth and elevation plus other details from your city location.







IsCatalogInMostPopularTable: catalog: 53454, numindb: 5
Update: records affected: 1



GetName: 53454 2022-098L

Hit Count: updated at: Thu, 08 Dec 2022 19:47:36 GMT